Location: Asbacherhof
(48.8543°N, 10.7903°E)
Time: 23:56:53
(UTC+00:00)

MSX - Pass Details

Date: 26 May 2022
Orbit: 895 x 905 km, 98.9° (Epoch: 26 June)

Event Time Altitude Azimuth Distance (km) Brightness Sun altitude
Rises 02:13:45 0° 13° (NNE) 3,535 8.1 -9.4°
Reaches altitude 10° 02:16:11 10° 11° (NNE) 2,591 7.2 -9.1°
Maximum altitude 02:21:55 71° 289° (WNW) 955 3.9 -8.5°
Drops below altitude 10° 02:27:39 10° 206° (SSW) 2,579 5.6 -7.8°
Enters shadow 02:28:11 - 206° (SSW) 2,787 5.8 -7.8°
